Weather History for Sheyang, LN

Change the Weather History Date:

Tuesday, October 2, 2012

  Actual Average Record
Temperature  
Mean Temperature 58 °F -  
Max Temperature 75 °F 60 °F 78 °F (2006)
Min Temperature 41 °F 38 °F 33 °F (2004)
Degree Days  
Heating Degree Days 7    
Growing Degree Days 8 (Base 50)    
Moisture  
Dew Point 44 °F    
Average Humidity 66    
Maximum Humidity 93    
Minimum Humidity 25    
Precipitation  
Precipitation 0.00 in 0.05 in - ()
Sea Level Pressure  
Sea Level Pressure 29.99 in    
Wind  
Wind Speed 5 mph ()    
Max Wind Speed 9 mph    
Max Gust Speed -    
Visibility 3.1 miles    
Events      
Averages and records for this station are not official NWS values.
T = Trace of Precipitation, MM = Missing Value Source: Averaged Metar Reports

Daily Weather History Graph

Daily Weather History Graph

Search for Another Location

Airport:

Trip Planner

Search our weather history database for the weather conditions in past years. The results will help you decide how hot, cold, wet, or windy it might be!

Date:

Astronomy

Oct. 02, 2012 Rise Set
Actual Time 5:43 AM CST 5:26 PM CST
Civil Twilight 5:16 AM CST 5:53 PM CST
Nautical Twilight 4:43 AM CST 6:26 PM CST
Astronomical Twilight 4:11 AM CST 6:58 PM CST
Moon 6:14 PM CST (10/2) 7:39 AM CST (10/2)
Length of Visible Light 12h 37m
Length of Day
11h 42m
Waning Gibbous, 96% of the Moon is Illuminated
Oct 2
Waning Gibbous
Oct 8
Last Quarter
Oct 15
New
Oct 22
First Quarter
Oct 30
Full

Hourly Weather History & Observations

Time (CST) Temp. Windchill Dew Point Humidity Pressure Visibility Wind Dir Wind Speed Gust Speed Precip Events Conditions
12:00 AM 48.2 °F - 44.6 °F 87% 30.04 in - SE 6.7 mph - N/A   Clear
12:30 AM 46.4 °F - 42.8 °F 87% 30.04 in - Variable 2.2 mph - N/A   Clear
1:00 AM 48.2 °F - 44.6 °F 87% 30.04 in - SE 6.7 mph - N/A   Clear
1:30 AM 46.4 °F - 42.8 °F 87% 30.04 in - Variable 2.2 mph - N/A   Clear
2:00 AM 46.4 °F 44.4 °F 42.8 °F 87% 30.04 in - ESE 4.5 mph - N/A   Clear
2:30 AM 42.8 °F - 39.2 °F 87% 30.04 in - Variable 2.2 mph - N/A   Clear
3:00 AM 42.8 °F - 39.2 °F 87% 30.04 in - Variable 2.2 mph - N/A   Clear
3:30 AM 44.6 °F - 42.8 °F 93% 30.04 in - ESE 2.2 mph - N/A   Clear
4:00 AM 44.6 °F 42.3 °F 42.8 °F 93% 30.04 in - ESE 4.5 mph - N/A   Clear
4:30 AM 41.0 °F 38.1 °F 39.2 °F 93% 30.04 in - NE 4.5 mph - N/A   Clear
5:00 AM 42.8 °F 38.7 °F 41.0 °F 93% 30.04 in - ENE 6.7 mph - N/A   Clear
5:30 AM 42.8 °F 38.7 °F 41.0 °F 93% 30.04 in - ENE 6.7 mph - N/A   Clear
6:00 AM 42.8 °F 40.2 °F 41.0 °F 93% 30.04 in - ENE 4.5 mph - N/A   Clear
6:30 AM 44.6 °F 42.3 °F 42.8 °F 93% 30.04 in - East 4.5 mph - N/A   Clear
7:00 AM 48.2 °F - 46.4 °F 93% 30.04 in - ESE 6.7 mph - N/A   Clear
7:30 AM 50.0 °F - 46.4 °F 87% 30.04 in - East 4.5 mph - N/A   Clear
8:00 AM 53.6 °F - 46.4 °F 77% 30.04 in - ESE 4.5 mph - N/A   Clear
8:30 AM 55.4 °F - 48.2 °F 77% 30.04 in - ESE 6.7 mph - N/A   Clear
9:00 AM 57.2 °F - 48.2 °F 72% 30.04 in - East 4.5 mph - N/A   Clear
9:30 AM 59.0 °F - 48.2 °F 67% 30.04 in - East 4.5 mph - N/A   Clear
10:00 AM 62.6 °F - 48.2 °F 59% 30.04 in - Variable 2.2 mph - N/A   Clear
11:00 AM 68.0 °F - 46.4 °F 46% 30.04 in - South 4.5 mph - N/A   Clear
11:30 AM 69.8 °F - 41.0 °F 35% 30.01 in - SSW 6.7 mph - N/A   Clear
12:00 PM 71.6 °F - 37.4 °F 29% 30.01 in - SSW 8.9 mph - N/A   Clear
12:30 PM 73.4 °F - 37.4 °F 27% 29.98 in - SW 8.9 mph - N/A   Clear
1:00 PM 73.4 °F - 37.4 °F 27% 29.98 in - SW 6.7 mph - N/A   Clear
1:30 PM 73.4 °F - 37.4 °F 27% 29.95 in - SW 8.9 mph - N/A   Clear
2:00 PM 75.2 °F - 37.4 °F 25% 29.95 in - SSW 6.7 mph - N/A   Clear
2:30 PM 75.2 °F - 39.2 °F 27% 29.95 in - SW 8.9 mph - N/A   Clear
3:00 PM 75.2 °F - 41.0 °F 29% 29.95 in - SW 8.9 mph - N/A   Clear
3:30 PM 75.2 °F - 39.2 °F 27% 29.92 in - SW 6.7 mph - N/A   Clear
4:00 PM 73.4 °F - 42.8 °F 33% 29.92 in - WSW 6.7 mph - N/A   Clear
4:30 PM 69.8 °F - 46.4 °F 43% 29.92 in - West 4.5 mph - N/A   Clear
5:00 PM 66.2 °F - 48.2 °F 52% 29.92 in 5.0 mi West 4.5 mph - N/A   Unknown
5:30 PM 64.4 °F - 48.2 °F 56% 29.95 in 2.5 mi WSW 2.2 mph - N/A   Smoke
6:00 PM 62.6 °F - 50.0 °F 63% 29.95 in 2.5 mi SSW 2.2 mph - N/A   Smoke
6:30 PM 60.8 °F - 50.0 °F 68% 29.95 in 2.5 mi SSE 4.5 mph - N/A   Smoke
7:00 PM 62.6 °F - 50.0 °F 63% 29.95 in 1.9 mi SSE 4.5 mph - N/A   Smoke
7:30 PM 59.0 °F - 50.0 °F 72% 29.95 in 1.9 mi SE 4.5 mph - N/A   Smoke
8:00 PM 59.0 °F - 48.2 °F 67% 29.95 in 3.7 mi ESE 6.7 mph - N/A   Unknown
8:30 PM 57.2 °F - 48.2 °F 72% 29.95 in 3.7 mi SE 4.5 mph - N/A   Unknown
9:00 PM 57.2 °F - 48.2 °F 72% 29.95 in 4.3 mi ESE 4.5 mph - N/A   Unknown
9:30 PM 55.4 °F - 50.0 °F 82% 29.95 in - SE 4.5 mph - N/A   Clear
10:00 PM 57.2 °F - 48.2 °F 72% 29.95 in - SE 4.5 mph - N/A   Clear
10:30 PM 57.2 °F - 46.4 °F 67% 29.95 in - SSE 4.5 mph - N/A   Clear
11:00 PM 57.2 °F - 46.4 °F 67% 29.95 in - SSE 4.5 mph - N/A   Clear
11:30 PM 59.0 °F - 48.2 °F 67% 29.95 in - SSE 6.7 mph - N/A   Clear